iso_date,epoch_date,Year,Hour,Min,DOY,POS_DOY,Lat,Lon,BP,Ts,Ta,has_bp,has_ts,has_ta,BuoyID,Buoy_Type,Buoy_Owner,Logistics,Hemisphere
2018-07-20T00:02:52Z,1532044973,2018,0,3,201.002,201.002,59.59524,-21.67105,1015.8,11.25,-999.0,yes,yes,no,300234065519760,BD2WHI,AOML,Air_deployed,North
2018-07-20T01:00:28Z,1532048429,2018,1,0,201.042,201.042,59.59654,-21.66842,1016.2,11.27,-999.0,yes,yes,no,300234065519760,BD2WHI,AOML,Air_deployed,North
2018-07-20T01:59:31Z,1532051971,2018,2,0,201.083,201.083,59.59624,-21.66374,1016.0,11.26,-999.0,yes,yes,no,300234065519760,BD2WHI,AOML,Air_deployed,North
2018-07-20T03:00:00Z,1532055600,2018,3,0,201.125,201.125,59.59484,-21.65881,1016.2,11.26,-999.0,yes,yes,no,300234065519760,BD2WHI,AOML,Air_deployed,North
2018-07-20T04:00:28Z,1532059229,2018,4,0,201.167,201.167,59.59314,-21.65345,1016.4,11.25,-999.0,yes,yes,no,300234065519760,BD2WHI,AOML,Air_deployed,North
2018-07-20T04:59:31Z,1532062771,2018,5,0,201.208,201.208,59.59034,-21.64691,1016.6,11.24,-999.0,yes,yes,no,300234065519760,BD2WHI,AOML,Air_deployed,North
2018-07-20T06:00:00Z,1532066400,2018,6,0,201.25,201.25,59.58669,-21.64124,1016.2,11.23,-999.0,yes,yes,no,300234065519760,BD2WHI,AOML,Air_deployed,North
2018-07-20T07:00:28Z,1532070029,2018,7,0,201.292,201.292,59.58355,-21.6383,1016.2,11.23,-999.0,yes,yes,no,300234065519760,BD2WHI,AOML,Air_deployed,North
2018-07-20T07:59:31Z,1532073571,2018,8,0,201.333,201.333,59.57938,-21.63542,1016.1,11.23,-999.0,yes,yes,no,300234065519760,BD2WHI,AOML,Air_deployed,North
2018-07-20T09:01:26Z,1532077286,2018,9,1,201.376,201.376,59.57862,-21.63181,1016.0,11.24,-999.0,yes,yes,no,300234065519760,BD2WHI,AOML,Air_deployed,North
2018-07-20T10:00:28Z,1532080829,2018,10,0,201.417,201.417,59.57718,-21.62797,1015.1,11.26,-999.0,yes,yes,no,300234065519760,BD2WHI,AOML,Air_deployed,North
2018-07-20T10:59:31Z,1532084371,2018,11,0,201.458,201.458,59.57641,-21.6233,1014.7,11.26,-999.0,yes,yes,no,300234065519760,BD2WHI,AOML,Air_deployed,North
2018-07-20T12:00:00Z,1532088000,2018,12,0,201.5,201.5,59.57551,-21.61729,1014.4,11.28,-999.0,yes,yes,no,300234065519760,BD2WHI,AOML,Air_deployed,North
2018-07-20T13:00:28Z,1532091629,2018,13,0,201.542,201.542,59.57522,-21.61078,1013.5,11.28,-999.0,yes,yes,no,300234065519760,BD2WHI,AOML,Air_deployed,North
2018-07-20T13:59:31Z,1532095171,2018,14,0,201.583,201.583,59.57373,-21.6027,1012.7,11.29,-999.0,yes,yes,no,300234065519760,BD2WHI,AOML,Air_deployed,North
2018-07-20T15:00:00Z,1532098800,2018,15,0,201.625,201.625,59.57242,-21.59232,1011.9,11.29,-999.0,yes,yes,no,300234065519760,BD2WHI,AOML,Air_deployed,North
2018-07-20T16:00:28Z,1532102429,2018,16,0,201.667,201.667,59.57093,-21.57862,1011.7,11.28,-999.0,yes,yes,no,300234065519760,BD2WHI,AOML,Air_deployed,North
2018-07-20T16:59:31Z,1532105971,2018,17,0,201.708,201.708,59.56733,-21.56461,1010.4,11.27,-999.0,yes,yes,no,300234065519760,BD2WHI,AOML,Air_deployed,North
2018-07-20T18:00:00Z,1532109600,2018,18,0,201.75,201.75,59.56269,-21.55134,1010.1,11.26,-999.0,yes,yes,no,300234065519760,BD2WHI,AOML,Air_deployed,North
2018-07-20T19:00:28Z,1532113229,2018,19,0,201.792,201.792,59.55843,-21.53801,1010.1,11.25,-999.0,yes,yes,no,300234065519760,BD2WHI,AOML,Air_deployed,North
2018-07-20T19:59:31Z,1532116771,2018,20,0,201.833,201.833,59.55263,-21.52888,1010.2,11.25,-999.0,yes,yes,no,300234065519760,BD2WHI,AOML,Air_deployed,North
2018-07-20T21:00:00Z,1532120400,2018,21,0,201.875,201.875,59.54848,-21.52194,1010.0,11.24,-999.0,yes,yes,no,300234065519760,BD2WHI,AOML,Air_deployed,North
2018-07-20T22:00:28Z,1532124029,2018,22,0,201.917,201.917,59.54538,-21.51755,1009.5,11.23,-999.0,yes,yes,no,300234065519760,BD2WHI,AOML,Air_deployed,North
2018-07-20T22:59:31Z,1532127571,2018,23,0,201.958,201.958,59.54459,-21.51346,1009.4,11.23,-999.0,yes,yes,no,300234065519760,BD2WHI,AOML,Air_deployed,North
2018-07-21T00:00:00Z,1532131200,2018,0,0,202.0,202.0,59.54499,-21.50731,1009.3,11.23,-999.0,yes,yes,no,300234065519760,BD2WHI,AOML,Air_deployed,North
2018-07-21T01:00:28Z,1532134829,2018,1,0,202.042,202.042,59.54672,-21.4998,1009.1,11.23,-999.0,yes,yes,no,300234065519760,BD2WHI,AOML,Air_deployed,North
2018-07-21T01:59:31Z,1532138371,2018,2,0,202.083,202.083,59.54886,-21.49011,1008.9,11.23,-999.0,yes,yes,no,300234065519760,BD2WHI,AOML,Air_deployed,North
2018-07-21T03:00:00Z,1532142000,2018,3,0,202.125,202.125,59.5515,-21.47928,1008.9,11.23,-999.0,yes,yes,no,300234065519760,BD2WHI,AOML,Air_deployed,North
2018-07-21T04:00:28Z,1532145629,2018,4,0,202.167,202.167,59.55367,-21.46516,1008.6,11.23,-999.0,yes,yes,no,300234065519760,BD2WHI,AOML,Air_deployed,North
2018-07-21T04:59:31Z,1532149171,2018,5,0,202.208,202.208,59.5526,-21.45049,1008.9,11.23,-999.0,yes,yes,no,300234065519760,BD2WHI,AOML,Air_deployed,North
2018-07-21T06:00:00Z,1532152800,2018,6,0,202.25,202.25,59.5539,-21.44187,1008.1,11.23,-999.0,yes,yes,no,300234065519760,BD2WHI,AOML,Air_deployed,North
2018-07-21T07:00:28Z,1532156429,2018,7,0,202.292,202.292,59.55401,-21.43019,1008.3,11.23,-999.0,yes,yes,no,300234065519760,BD2WHI,AOML,Air_deployed,North
2018-07-21T07:59:31Z,1532159971,2018,8,0,202.333,202.333,59.55333,-21.41612,1008.0,11.23,-999.0,yes,yes,no,300234065519760,BD2WHI,AOML,Air_deployed,North
2018-07-21T09:00:00Z,1532163600,2018,9,0,202.375,202.375,59.55258,-21.41185,1007.5,11.24,-999.0,yes,yes,no,300234065519760,BD2WHI,AOML,Air_deployed,North
2018-07-21T10:00:28Z,1532167229,2018,10,0,202.417,202.417,59.554,-21.40963,1007.0,11.23,-999.0,yes,yes,no,300234065519760,BD2WHI,AOML,Air_deployed,North
2018-07-21T10:59:31Z,1532170771,2018,11,0,202.458,202.458,59.55614,-21.40855,1006.6,11.25,-999.0,yes,yes,no,300234065519760,BD2WHI,AOML,Air_deployed,North
2018-07-21T12:00:00Z,1532174400,2018,12,0,202.5,202.5,59.56125,-21.4072,1006.5,11.27,-999.0,yes,yes,no,300234065519760,BD2WHI,AOML,Air_deployed,North
2018-07-21T13:00:28Z,1532178029,2018,13,0,202.542,202.542,59.56757,-21.40568,1006.8,11.28,-999.0,yes,yes,no,300234065519760,BD2WHI,AOML,Air_deployed,North
2018-07-21T13:59:31Z,1532181571,2018,14,0,202.583,202.583,59.57415,-21.40177,1006.4,11.3,-999.0,yes,yes,no,300234065519760,BD2WHI,AOML,Air_deployed,North
2018-07-21T15:00:00Z,1532185200,2018,15,0,202.625,202.625,59.58155,-21.39643,1006.7,11.34,-999.0,yes,yes,no,300234065519760,BD2WHI,AOML,Air_deployed,North
2018-07-21T16:00:28Z,1532188829,2018,16,0,202.667,202.667,59.58786,-21.39122,1006.6,11.36,-999.0,yes,yes,no,300234065519760,BD2WHI,AOML,Air_deployed,North
2018-07-21T16:59:31Z,1532192371,2018,17,0,202.708,202.708,59.59269,-21.38784,1007.2,11.35,-999.0,yes,yes,no,300234065519760,BD2WHI,AOML,Air_deployed,North
2018-07-21T18:00:00Z,1532196000,2018,18,0,202.75,202.75,59.59732,-21.38518,1007.3,11.34,-999.0,yes,yes,no,300234065519760,BD2WHI,AOML,Air_deployed,North
2018-07-21T19:00:28Z,1532199629,2018,19,0,202.792,202.792,59.60501,-21.37963,1007.8,11.33,-999.0,yes,yes,no,300234065519760,BD2WHI,AOML,Air_deployed,North
2018-07-21T19:59:31Z,1532203171,2018,20,0,202.833,202.833,59.60938,-21.37941,1008.2,11.3,-999.0,yes,yes,no,300234065519760,BD2WHI,AOML,Air_deployed,North
2018-07-21T21:00:00Z,1532206800,2018,21,0,202.875,202.875,59.61429,-21.37894,1008.1,11.29,-999.0,yes,yes,no,300234065519760,BD2WHI,AOML,Air_deployed,North
2018-07-21T22:00:28Z,1532210429,2018,22,0,202.917,202.917,59.6185,-21.38152,1008.0,11.29,-999.0,yes,yes,no,300234065519760,BD2WHI,AOML,Air_deployed,North
2018-07-21T22:59:31Z,1532213971,2018,23,0,202.958,202.958,59.62386,-21.38751,1008.4,11.28,-999.0,yes,yes,no,300234065519760,BD2WHI,AOML,Air_deployed,North
2018-07-22T00:00:00Z,1532217600,2018,0,0,203.0,203.0,59.6318,-21.39255,1008.5,11.27,-999.0,yes,yes,no,300234065519760,BD2WHI,AOML,Air_deployed,North
2018-07-22T01:00:28Z,1532221229,2018,1,0,203.042,203.042,59.64088,-21.39557,1008.7,11.26,-999.0,yes,yes,no,300234065519760,BD2WHI,AOML,Air_deployed,North
2018-07-22T01:59:31Z,1532224771,2018,2,0,203.083,203.083,59.65159,-21.3994,1008.3,11.25,-999.0,yes,yes,no,300234065519760,BD2WHI,AOML,Air_deployed,North
2018-07-22T03:01:26Z,1532228486,2018,3,2,203.126,203.126,59.66298,-21.40063,1007.8,11.25,-999.0,yes,yes,no,300234065519760,BD2WHI,AOML,Air_deployed,North
2018-07-22T04:00:28Z,1532232029,2018,4,0,203.167,203.167,59.67477,-21.40327,1007.4,11.24,-999.0,yes,yes,no,300234065519760,BD2WHI,AOML,Air_deployed,North
2018-07-22T04:59:31Z,1532235571,2018,5,0,203.208,203.208,59.68527,-21.4059,1007.2,11.24,-999.0,yes,yes,no,300234065519760,BD2WHI,AOML,Air_deployed,North
2018-07-22T06:00:00Z,1532239200,2018,6,0,203.25,203.25,59.69532,-21.41648,1006.8,11.24,-999.0,yes,yes,no,300234065519760,BD2WHI,AOML,Air_deployed,North
2018-07-22T07:00:28Z,1532242829,2018,7,0,203.292,203.292,59.70869,-21.4204,1006.5,11.24,-999.0,yes,yes,no,300234065519760,BD2WHI,AOML,Air_deployed,North
2018-07-22T07:59:31Z,1532246371,2018,8,0,203.333,203.333,59.71981,-21.42226,1006.3,11.24,-999.0,yes,yes,no,300234065519760,BD2WHI,AOML,Air_deployed,North
2018-07-22T09:00:00Z,1532250000,2018,9,0,203.375,203.375,59.73204,-21.43163,1005.9,11.25,-999.0,yes,yes,no,300234065519760,BD2WHI,AOML,Air_deployed,North
2018-07-22T10:00:28Z,1532253629,2018,10,0,203.417,203.417,59.74698,-21.43806,1005.4,11.25,-999.0,yes,yes,no,300234065519760,BD2WHI,AOML,Air_deployed,North
2018-07-22T11:02:24Z,1532257344,2018,11,2,203.46,203.46,59.76162,-21.44811,1005.3,11.26,-999.0,yes,yes,no,300234065519760,BD2WHI,AOML,Air_deployed,North
2018-07-22T12:00:00Z,1532260800,2018,12,0,203.5,203.5,59.77272,-21.45391,1005.1,11.29,-999.0,yes,yes,no,300234065519760,BD2WHI,AOML,Air_deployed,North
2018-07-22T13:00:28Z,1532264429,2018,13,0,203.542,203.542,59.78605,-21.46478,1004.8,11.3,-999.0,yes,yes,no,300234065519760,BD2WHI,AOML,Air_deployed,North
2018-07-22T14:00:57Z,1532268058,2018,14,1,203.584,203.584,59.79881,-21.47607,1004.7,11.31,-999.0,yes,yes,no,300234065519760,BD2WHI,AOML,Air_deployed,North
2018-07-22T15:01:26Z,1532271686,2018,15,1,203.626,203.626,59.8112,-21.48912,1004.4,11.28,-999.0,yes,yes,no,300234065519760,BD2WHI,AOML,Air_deployed,North
2018-07-22T16:00:28Z,1532275229,2018,16,0,203.667,203.667,59.82214,-21.50223,1004.0,11.31,-999.0,yes,yes,no,300234065519760,BD2WHI,AOML,Air_deployed,North
2018-07-22T16:59:31Z,1532278771,2018,17,0,203.708,203.708,59.83186,-21.51627,1003.4,11.3,-999.0,yes,yes,no,300234065519760,BD2WHI,AOML,Air_deployed,North
2018-07-22T18:00:00Z,1532282400,2018,18,0,203.75,203.75,59.84224,-21.53403,1003.3,11.3,-999.0,yes,yes,no,300234065519760,BD2WHI,AOML,Air_deployed,North
2018-07-22T19:00:28Z,1532286029,2018,19,0,203.792,203.792,59.85733,-21.5473,1003.0,11.29,-999.0,yes,yes,no,300234065519760,BD2WHI,AOML,Air_deployed,North
2018-07-22T19:59:31Z,1532289571,2018,20,0,203.833,203.833,59.86694,-21.56744,1002.5,11.25,-999.0,yes,yes,no,300234065519760,BD2WHI,AOML,Air_deployed,North
2018-07-22T21:00:00Z,1532293200,2018,21,0,203.875,203.875,59.87821,-21.58151,1002.5,11.23,-999.0,yes,yes,no,300234065519760,BD2WHI,AOML,Air_deployed,North
2018-07-22T22:00:28Z,1532296829,2018,22,0,203.917,203.917,59.88881,-21.60059,1002.2,11.21,-999.0,yes,yes,no,300234065519760,BD2WHI,AOML,Air_deployed,North
2018-07-22T23:02:24Z,1532300544,2018,23,2,203.96,203.96,59.90079,-21.61509,1002.1,11.19,-999.0,yes,yes,no,300234065519760,BD2WHI,AOML,Air_deployed,North
2018-07-23T00:00:00Z,1532304000,2018,0,0,204.0,204.0,59.91128,-21.6236,1001.8,11.17,-999.0,yes,yes,no,300234065519760,BD2WHI,AOML,Air_deployed,North
2018-07-23T01:00:28Z,1532307629,2018,1,0,204.042,204.042,59.92064,-21.63692,1001.6,11.15,-999.0,yes,yes,no,300234065519760,BD2WHI,AOML,Air_deployed,North
2018-07-23T01:59:31Z,1532311171,2018,2,0,204.083,204.083,59.9298,-21.64694,1001.4,11.14,-999.0,yes,yes,no,300234065519760,BD2WHI,AOML,Air_deployed,North
2018-07-23T03:00:00Z,1532314800,2018,3,0,204.125,204.125,59.93784,-21.662,1001.1,11.13,-999.0,yes,yes,no,300234065519760,BD2WHI,AOML,Air_deployed,North
2018-07-23T04:00:28Z,1532318429,2018,4,1,204.167,204.167,59.94465,-21.67214,1000.9,11.12,-999.0,yes,yes,no,300234065519760,BD2WHI,AOML,Air_deployed,North
2018-07-23T04:59:31Z,1532321971,2018,5,0,204.208,204.208,59.94724,-21.69648,1000.5,11.11,-999.0,yes,yes,no,300234065519760,BD2WHI,AOML,Air_deployed,North
2018-07-23T06:01:26Z,1532325686,2018,6,1,204.251,204.251,59.95385,-21.70221,1000.3,11.1,-999.0,yes,yes,no,300234065519760,BD2WHI,AOML,Air_deployed,North
2018-07-23T07:00:28Z,1532329229,2018,7,0,204.292,204.292,59.95805,-21.71969,1000.1,11.09,-999.0,yes,yes,no,300234065519760,BD2WHI,AOML,Air_deployed,North
2018-07-23T07:59:31Z,1532332771,2018,8,0,204.333,204.333,59.96297,-21.74004,1000.3,11.09,-999.0,yes,yes,no,300234065519760,BD2WHI,AOML,Air_deployed,North
2018-07-23T09:00:00Z,1532336400,2018,9,0,204.375,204.375,59.96804,-21.76103,1000.2,11.09,-999.0,yes,yes,no,300234065519760,BD2WHI,AOML,Air_deployed,North
2018-07-23T10:00:28Z,1532340029,2018,10,0,204.417,204.417,59.97658,-21.77969,1000.0,11.09,-999.0,yes,yes,no,300234065519760,BD2WHI,AOML,Air_deployed,North
2018-07-23T10:59:31Z,1532343571,2018,11,0,204.458,204.458,59.98349,-21.79279,1000.1,11.09,-999.0,yes,yes,no,300234065519760,BD2WHI,AOML,Air_deployed,North
2018-07-23T12:01:26Z,1532347286,2018,12,1,204.501,204.501,59.99322,-21.80367,1000.0,11.1,-999.0,yes,yes,no,300234065519760,BD2WHI,AOML,Air_deployed,North
2018-07-23T13:00:28Z,1532350829,2018,13,0,204.542,204.542,59.99965,-21.81268,999.9,11.1,-999.0,yes,yes,no,300234065519760,BD2WHI,AOML,Air_deployed,North
2018-07-23T13:59:31Z,1532354371,2018,14,0,204.583,204.583,60.00428,-21.81867,999.9,11.09,-999.0,yes,yes,no,300234065519760,BD2WHI,AOML,Air_deployed,North
2018-07-23T15:00:00Z,1532358000,2018,15,0,204.625,204.625,60.00748,-21.82517,999.6,11.13,-999.0,yes,yes,no,300234065519760,BD2WHI,AOML,Air_deployed,North
2018-07-23T16:00:28Z,1532361629,2018,16,0,204.667,204.667,60.00877,-21.83354,999.7,11.12,-999.0,yes,yes,no,300234065519760,BD2WHI,AOML,Air_deployed,North
2018-07-23T16:59:31Z,1532365171,2018,17,0,204.708,204.708,60.00757,-21.84229,999.7,11.13,-999.0,yes,yes,no,300234065519760,BD2WHI,AOML,Air_deployed,North
2018-07-23T18:00:00Z,1532368800,2018,18,0,204.75,204.75,60.00673,-21.85402,999.6,11.13,-999.0,yes,yes,no,300234065519760,BD2WHI,AOML,Air_deployed,North
2018-07-23T19:00:28Z,1532372429,2018,19,1,204.792,204.792,60.00581,-21.86726,999.6,11.11,-999.0,yes,yes,no,300234065519760,BD2WHI,AOML,Air_deployed,North
2018-07-23T19:59:31Z,1532375971,2018,20,0,204.833,204.833,60.00569,-21.88111,999.7,11.1,-999.0,yes,yes,no,300234065519760,BD2WHI,AOML,Air_deployed,North
2018-07-23T21:00:00Z,1532379600,2018,21,0,204.875,204.875,60.00637,-21.89683,999.9,11.11,-999.0,yes,yes,no,300234065519760,BD2WHI,AOML,Air_deployed,North
2018-07-23T22:00:28Z,1532383229,2018,22,0,204.917,204.917,60.00748,-21.9097,1000.4,11.11,-999.0,yes,yes,no,300234065519760,BD2WHI,AOML,Air_deployed,North
2018-07-23T23:03:50Z,1532387030,2018,23,4,204.961,204.961,60.00977,-21.92068,1000.6,11.12,-999.0,yes,yes,no,300234065519760,BD2WHI,AOML,Air_deployed,North
2018-07-24T00:00:00Z,1532390400,2018,0,0,205.0,205.0,60.01287,-21.929,1000.4,11.12,-999.0,yes,yes,no,300234065519760,BD2WHI,AOML,Air_deployed,North
2018-07-24T01:00:28Z,1532394029,2018,1,0,205.042,205.042,60.01532,-21.93586,1000.5,11.13,-999.0,yes,yes,no,300234065519760,BD2WHI,AOML,Air_deployed,North
2018-07-24T01:59:31Z,1532397571,2018,2,0,205.083,205.083,60.01846,-21.93977,1000.4,11.14,-999.0,yes,yes,no,300234065519760,BD2WHI,AOML,Air_deployed,North
2018-07-24T03:00:00Z,1532401200,2018,3,0,205.125,205.125,60.01971,-21.94315,1000.4,11.15,-999.0,yes,yes,no,300234065519760,BD2WHI,AOML,Air_deployed,North
2018-07-24T04:00:28Z,1532404829,2018,4,0,205.167,205.167,60.01954,-21.944,1000.3,11.18,-999.0,yes,yes,no,300234065519760,BD2WHI,AOML,Air_deployed,North
2018-07-24T04:59:31Z,1532408371,2018,5,0,205.208,205.208,60.01825,-21.94573,1000.5,11.19,-999.0,yes,yes,no,300234065519760,BD2WHI,AOML,Air_deployed,North
2018-07-24T06:00:00Z,1532412000,2018,6,0,205.25,205.25,60.01588,-21.94997,1000.7,11.2,-999.0,yes,yes,no,300234065519760,BD2WHI,AOML,Air_deployed,North
2018-07-24T07:00:28Z,1532415629,2018,7,0,205.292,205.292,60.01193,-21.95632,1001.0,11.2,-999.0,yes,yes,no,300234065519760,BD2WHI,AOML,Air_deployed,North
2018-07-24T07:59:31Z,1532419171,2018,8,0,205.333,205.333,60.00857,-21.96337,1001.3,11.21,-999.0,yes,yes,no,300234065519760,BD2WHI,AOML,Air_deployed,North
2018-07-24T09:00:00Z,1532422800,2018,9,0,205.375,205.375,60.00489,-21.97351,1001.5,11.25,-999.0,yes,yes,no,300234065519760,BD2WHI,AOML,Air_deployed,North
2018-07-24T10:00:28Z,1532426429,2018,10,0,205.417,205.417,60.00539,-21.98071,1001.7,11.27,-999.0,yes,yes,no,300234065519760,BD2WHI,AOML,Air_deployed,North
2018-07-24T10:59:31Z,1532429971,2018,11,0,205.458,205.458,60.00601,-21.98647,1002.1,11.3,-999.0,yes,yes,no,300234065519760,BD2WHI,AOML,Air_deployed,North
2018-07-24T12:01:26Z,1532433686,2018,12,1,205.501,205.501,60.00843,-21.99028,1002.5,11.35,-999.0,yes,yes,no,300234065519760,BD2WHI,AOML,Air_deployed,North
2018-07-24T13:00:28Z,1532437229,2018,13,0,205.542,205.542,60.01064,-21.99118,1002.5,11.41,-999.0,yes,yes,no,300234065519760,BD2WHI,AOML,Air_deployed,North
2018-07-24T13:59:31Z,1532440771,2018,14,0,205.583,205.583,60.01285,-21.98661,1002.5,11.49,-999.0,yes,yes,no,300234065519760,BD2WHI,AOML,Air_deployed,North
2018-07-24T15:00:00Z,1532444400,2018,15,0,205.625,205.625,60.01324,-21.97874,1002.8,11.52,-999.0,yes,yes,no,300234065519760,BD2WHI,AOML,Air_deployed,North
2018-07-24T16:00:28Z,1532448029,2018,16,0,205.667,205.667,60.0098,-21.96975,1002.7,11.51,-999.0,yes,yes,no,300234065519760,BD2WHI,AOML,Air_deployed,North
2018-07-24T16:59:31Z,1532451571,2018,17,0,205.708,205.708,60.00509,-21.96158,1003.0,11.53,-999.0,yes,yes,no,300234065519760,BD2WHI,AOML,Air_deployed,North
2018-07-24T18:00:00Z,1532455200,2018,18,0,205.75,205.75,60.00087,-21.95809,1003.1,11.57,-999.0,yes,yes,no,300234065519760,BD2WHI,AOML,Air_deployed,North
2018-07-24T19:00:28Z,1532458829,2018,19,0,205.792,205.792,59.9951,-21.95732,1003.3,11.55,-999.0,yes,yes,no,300234065519760,BD2WHI,AOML,Air_deployed,North
2018-07-24T19:59:31Z,1532462371,2018,20,0,205.833,205.833,59.99016,-21.95834,1003.6,11.55,-999.0,yes,yes,no,300234065519760,BD2WHI,AOML,Air_deployed,North
2018-07-24T21:00:00Z,1532466000,2018,21,0,205.875,205.875,59.9876,-21.95973,1003.8,11.54,-999.0,yes,yes,no,300234065519760,BD2WHI,AOML,Air_deployed,North
2018-07-24T22:00:28Z,1532469629,2018,22,0,205.917,205.917,59.98618,-21.95925,1004.0,11.51,-999.0,yes,yes,no,300234065519760,BD2WHI,AOML,Air_deployed,North
2018-07-24T23:02:24Z,1532473344,2018,23,2,205.96,205.96,59.98762,-21.95727,1004.1,11.5,-999.0,yes,yes,no,300234065519760,BD2WHI,AOML,Air_deployed,North
2018-07-25T00:00:00Z,1532476800,2018,0,0,206.0,206.0,59.99101,-21.95331,1003.9,11.49,-999.0,yes,yes,no,300234065519760,BD2WHI,AOML,Air_deployed,North
2018-07-25T01:00:28Z,1532480429,2018,1,0,206.042,206.042,59.99353,-21.94209,1003.9,11.47,-999.0,yes,yes,no,300234065519760,BD2WHI,AOML,Air_deployed,North
2018-07-25T02:00:57Z,1532484058,2018,2,1,206.084,206.084,59.99504,-21.92762,1003.8,11.47,-999.0,yes,yes,no,300234065519760,BD2WHI,AOML,Air_deployed,North
2018-07-25T03:00:00Z,1532487600,2018,3,0,206.125,206.125,59.99644,-21.9123,1003.5,11.45,-999.0,yes,yes,no,300234065519760,BD2WHI,AOML,Air_deployed,North
2018-07-25T04:00:28Z,1532491229,2018,4,0,206.167,206.167,59.99308,-21.89542,1003.5,11.43,-999.0,yes,yes,no,300234065519760,BD2WHI,AOML,Air_deployed,North
2018-07-25T04:59:31Z,1532494771,2018,5,0,206.208,206.208,59.99108,-21.87931,1003.5,11.45,-999.0,yes,yes,no,300234065519760,BD2WHI,AOML,Air_deployed,North
2018-07-25T06:00:00Z,1532498400,2018,6,0,206.25,206.25,59.98789,-21.8661,1003.7,11.44,-999.0,yes,yes,no,300234065519760,BD2WHI,AOML,Air_deployed,North
2018-07-25T07:00:28Z,1532502029,2018,7,0,206.292,206.292,59.98283,-21.85921,1003.5,11.44,-999.0,yes,yes,no,300234065519760,BD2WHI,AOML,Air_deployed,North
2018-07-25T07:59:31Z,1532505571,2018,8,0,206.333,206.333,59.97976,-21.85168,1003.6,11.44,-999.0,yes,yes,no,300234065519760,BD2WHI,AOML,Air_deployed,North
2018-07-25T09:01:26Z,1532509286,2018,9,1,206.376,206.376,59.97849,-21.84903,1003.5,11.44,-999.0,yes,yes,no,300234065519760,BD2WHI,AOML,Air_deployed,North
2018-07-25T10:00:28Z,1532512829,2018,10,0,206.417,206.417,59.9798,-21.84607,1003.2,11.45,-999.0,yes,yes,no,300234065519760,BD2WHI,AOML,Air_deployed,North
2018-07-25T10:59:31Z,1532516371,2018,11,0,206.458,206.458,59.98455,-21.84083,1003.2,11.47,-999.0,yes,yes,no,300234065519760,BD2WHI,AOML,Air_deployed,North
2018-07-25T12:00:00Z,1532520000,2018,12,0,206.5,206.5,59.99125,-21.83072,1002.8,11.49,-999.0,yes,yes,no,300234065519760,BD2WHI,AOML,Air_deployed,North
2018-07-25T13:00:28Z,1532523629,2018,13,0,206.542,206.542,59.99467,-21.81985,1002.5,11.5,-999.0,yes,yes,no,300234065519760,BD2WHI,AOML,Air_deployed,North
2018-07-25T13:59:31Z,1532527171,2018,14,0,206.583,206.583,60.00036,-21.80369,1002.2,11.51,-999.0,yes,yes,no,300234065519760,BD2WHI,AOML,Air_deployed,North
2018-07-25T15:00:00Z,1532530800,2018,15,0,206.625,206.625,60.00578,-21.78622,1001.9,11.52,-999.0,yes,yes,no,300234065519760,BD2WHI,AOML,Air_deployed,North
2018-07-25T16:00:28Z,1532534429,2018,16,0,206.667,206.667,60.00722,-21.76988,1001.8,11.51,-999.0,yes,yes,no,300234065519760,BD2WHI,AOML,Air_deployed,North
2018-07-25T16:59:31Z,1532537971,2018,17,0,206.708,206.708,60.00833,-21.75624,1001.1,11.49,-999.0,yes,yes,no,300234065519760,BD2WHI,AOML,Air_deployed,North
2018-07-25T18:00:00Z,1532541600,2018,18,0,206.75,206.75,60.01023,-21.74645,1000.9,11.47,-999.0,yes,yes,no,300234065519760,BD2WHI,AOML,Air_deployed,North
2018-07-25T19:00:28Z,1532545229,2018,19,1,206.792,206.792,60.00959,-21.74144,1000.4,11.47,-999.0,yes,yes,no,300234065519760,BD2WHI,AOML,Air_deployed,North
2018-07-25T20:03:50Z,1532549030,2018,20,4,206.836,206.836,60.01031,-21.74075,1000.0,11.45,-999.0,yes,yes,no,300234065519760,BD2WHI,AOML,Air_deployed,North
2018-07-25T21:00:00Z,1532552400,2018,21,0,206.875,206.875,60.01559,-21.74205,999.6,11.44,-999.0,yes,yes,no,300234065519760,BD2WHI,AOML,Air_deployed,North
2018-07-25T22:00:28Z,1532556029,2018,22,0,206.917,206.917,60.01943,-21.73708,999.5,11.43,-999.0,yes,yes,no,300234065519760,BD2WHI,AOML,Air_deployed,North
2018-07-25T23:03:50Z,1532559830,2018,23,4,206.961,206.961,60.02677,-21.73741,999.2,11.43,-999.0,yes,yes,no,300234065519760,BD2WHI,AOML,Air_deployed,North
2018-07-26T00:00:00Z,1532563200,2018,0,0,207.0,207.0,60.0349,-21.73648,998.5,11.42,-999.0,yes,yes,no,300234065519760,BD2WHI,AOML,Air_deployed,North
2018-07-26T01:00:28Z,1532566829,2018,1,0,207.042,207.042,60.04675,-21.72961,997.7,11.42,-999.0,yes,yes,no,300234065519760,BD2WHI,AOML,Air_deployed,North
2018-07-26T02:03:50Z,1532570630,2018,2,4,207.086,207.086,60.05244,-21.72801,997.0,11.41,-999.0,yes,yes,no,300234065519760,BD2WHI,AOML,Air_deployed,North
2018-07-26T03:00:00Z,1532574000,2018,3,0,207.125,207.125,60.05683,-21.72506,996.2,11.41,-999.0,yes,yes,no,300234065519760,BD2WHI,AOML,Air_deployed,North
2018-07-26T04:00:28Z,1532577629,2018,4,1,207.167,207.167,60.05854,-21.72444,995.8,11.4,-999.0,yes,yes,no,300234065519760,BD2WHI,AOML,Air_deployed,North
2018-07-26T04:59:31Z,1532581171,2018,5,0,207.208,207.208,60.06335,-21.72429,995.5,11.4,-999.0,yes,yes,no,300234065519760,BD2WHI,AOML,Air_deployed,North
2018-07-26T06:00:00Z,1532584800,2018,6,0,207.25,207.25,60.06693,-21.73143,995.1,11.4,-999.0,yes,yes,no,300234065519760,BD2WHI,AOML,Air_deployed,North
2018-07-26T07:03:21Z,1532588602,2018,7,3,207.294,207.294,60.07162,-21.7372,994.8,11.4,-999.0,yes,yes,no,300234065519760,BD2WHI,AOML,Air_deployed,North
2018-07-26T07:59:31Z,1532591971,2018,8,0,207.333,207.333,60.07467,-21.74315,994.7,11.4,-999.0,yes,yes,no,300234065519760,BD2WHI,AOML,Air_deployed,North
2018-07-26T09:01:26Z,1532595686,2018,9,1,207.376,207.376,60.07838,-21.74952,994.6,11.4,-999.0,yes,yes,no,300234065519760,BD2WHI,AOML,Air_deployed,North
2018-07-26T10:00:28Z,1532599229,2018,10,0,207.417,207.417,60.08282,-21.75789,994.6,11.42,-999.0,yes,yes,no,300234065519760,BD2WHI,AOML,Air_deployed,North